Location: Unspecified
(47.4992°N, 121.7766°W)
Time: 11:03:40
(UTC-07:00)

Okean 3 - Pass Details

Date: 12 August 2024
Orbit: 557 x 580 km, 82.5° (Epoch: 12 September)

Event Time Altitude Azimuth Distance (km) Brightness Sun altitude
Rises 01:18:15 0° 4° (N) 2,756 8.2 -27.7°
Reaches altitude 10° 01:21:02 10° 24° (NNE) 1,854 6.8 -27.7°
Maximum altitude 01:23:50 18° 68° (ENE) 1,420 5.6 -27.7°
Enters shadow 01:23:58 18° 70° (ENE) 1,421 5.6 -27.7°
